TimeCDT,TemperatureF,Dew PointF,Humidity,Sea Level PressureIn,VisibilityMPH,Wind Direction,Wind SpeedMPH,Gust SpeedMPH,PrecipitationIn,Events,Conditions,WindDirDegrees,DateUTC
12:53 AM,73.0,72.0,96,29.95,10.0,Calm,Calm,-,N/A,,Mostly Cloudy,0,2013-08-13 05:53:00
1:53 AM,73.9,72.0,93,29.96,10.0,NNE,9.2,16.1,N/A,,Scattered Clouds,20,2013-08-13 06:53:00
2:03 AM,73.4,71.6,94,30.00,10.0,NNE,9.2,-,N/A,Thunderstorm,Mostly Cloudy,30,2013-08-13 07:03:00
2:20 AM,75.2,71.6,89,30.04,8.0,NNW,11.5,-,0.02,Rain-Thunderstorm,Light Rain,330,2013-08-13 07:20:00
2:28 AM,73.4,71.6,94,30.02,2.5,North,8.1,-,0.10,Rain-Thunderstorm,Heavy Thunderstorms and Rain,10,2013-08-13 07:28:00
2:38 AM,73.4,71.6,94,30.02,6.0,North,4.6,-,0.11,Rain-Thunderstorm,Light Thunderstorms and Rain,360,2013-08-13 07:38:00
2:53 AM,73.9,72.0,93,29.99,10.0,NE,3.5,-,0.11,,Overcast,50,2013-08-13 07:53:00
3:38 AM,73.4,71.6,94,29.99,8.0,ENE,4.6,-,N/A,,Partly Cloudy,60,2013-08-13 08:38:00
3:53 AM,72.0,71.1,97,29.97,9.0,East,4.6,-,N/A,,Partly Cloudy,90,2013-08-13 08:53:00
4:32 AM,71.6,71.6,100,29.99,8.0,East,5.8,-,N/A,,Mostly Cloudy,80,2013-08-13 09:32:00
4:53 AM,72.0,71.1,97,29.97,7.0,ENE,5.8,-,N/A,,Overcast,70,2013-08-13 09:53:00
5:53 AM,72.0,70.0,93,29.99,10.0,NE,4.6,-,N/A,,Mostly Cloudy,40,2013-08-13 10:53:00
6:05 AM,71.6,69.8,94,30.01,10.0,Variable,5.8,-,N/A,,Mostly Cloudy,0,2013-08-13 11:05:00
6:44 AM,71.6,69.8,94,30.01,10.0,ENE,6.9,-,N/A,,Mostly Cloudy,70,2013-08-13 11:44:00
6:53 AM,71.1,70.0,96,29.99,10.0,Variable,6.9,-,N/A,,Scattered Clouds,0,2013-08-13 11:53:00
7:53 AM,71.1,69.1,93,30.02,10.0,NE,4.6,-,N/A,,Mostly Cloudy,40,2013-08-13 12:53:00
8:27 AM,71.6,69.8,94,30.05,10.0,NNE,4.6,-,0.01,Rain-Thunderstorm,Light Rain,30,2013-08-13 13:27:00
8:40 AM,71.6,69.8,94,30.06,7.0,Variable,3.5,-,0.03,Rain-Thunderstorm,Light Thunderstorms and Rain,0,2013-08-13 13:40:00
8:53 AM,70.0,68.0,93,30.05,5.0,North,3.5,-,0.05,Rain-Thunderstorm,Thunderstorms and Rain,350,2013-08-13 13:53:00
8:57 AM,69.8,68.0,94,30.07,1.8,Calm,Calm,-,0.10,Rain-Thunderstorm,Rain,0,2013-08-13 13:57:00
9:01 AM,69.8,69.8,100,30.07,0.8,Variable,4.6,-,0.23,Rain-Thunderstorm,Heavy Rain,0,2013-08-13 14:01:00
9:11 AM,69.8,69.8,100,30.06,1.8,East,3.5,-,0.28,Rain-Thunderstorm,Rain,90,2013-08-13 14:11:00
9:15 AM,69.8,69.8,100,30.05,2.0,ENE,5.8,-,0.29,Rain,Heavy Rain,60,2013-08-13 14:15:00
9:27 AM,69.8,69.8,100,30.05,4.0,Variable,3.5,-,0.32,Rain,Rain,0,2013-08-13 14:27:00
9:34 AM,69.8,68.0,94,30.06,5.0,Calm,Calm,-,0.34,Rain,Rain,0,2013-08-13 14:34:00
9:53 AM,70.0,68.0,93,30.04,10.0,ESE,4.6,-,0.34,Rain-Thunderstorm,Light Rain,110,2013-08-13 14:53:00
10:07 AM,69.8,69.8,100,30.06,8.0,East,3.5,-,0.01,Rain,Light Rain,100,2013-08-13 15:07:00
10:18 AM,69.8,69.8,100,30.07,4.0,Calm,Calm,-,0.03,Rain-Thunderstorm,Light Rain,0,2013-08-13 15:18:00
10:33 AM,69.8,69.8,100,30.05,1.8,SSE,5.8,-,0.09,Rain,Heavy Rain,150,2013-08-13 15:33:00
10:40 AM,69.8,69.8,100,30.06,3.0,SSE,3.5,-,0.09,Rain,Light Rain,160,2013-08-13 15:40:00
10:53 AM,70.0,69.1,97,30.03,2.0,South,5.8,-,0.14,Rain-Thunderstorm,Thunderstorms and Rain,180,2013-08-13 15:53:00
10:56 AM,69.8,69.8,100,30.04,1.5,SSE,5.8,-,0.03,Rain,Heavy Rain,160,2013-08-13 15:56:00
11:05 AM,69.8,69.8,100,30.04,3.0,SSE,3.5,-,0.05,Rain,Rain,160,2013-08-13 16:05:00
11:53 AM,73.9,71.1,91,30.03,10.0,SW,3.5,-,0.06,,Mostly Cloudy,230,2013-08-13 16:53:00
12:53 PM,75.0,72.0,90,30.02,10.0,WNW,3.5,-,0.00,,Overcast,290,2013-08-13 17:53:00
1:53 PM,79.0,72.0,79,30.01,10.0,North,8.1,-,0.00,,Partly Cloudy,360,2013-08-13 18:53:00
2:48 PM,78.8,71.6,78,30.01,10.0,North,11.5,-,N/A,,Mostly Cloudy,350,2013-08-13 19:48:00
2:53 PM,79.0,70.0,74,29.98,10.0,NNW,8.1,-,N/A,,Mostly Cloudy,340,2013-08-13 19:53:00
3:53 PM,80.1,71.1,74,29.97,10.0,NNW,8.1,-,N/A,,Overcast,330,2013-08-13 20:53:00
4:02 PM,78.8,71.6,78,29.99,10.0,North,9.2,-,N/A,,Overcast,360,2013-08-13 21:02:00
4:53 PM,79.0,72.0,79,29.97,10.0,North,4.6,-,N/A,,Overcast,350,2013-08-13 21:53:00
5:53 PM,79.0,72.0,79,29.96,10.0,Calm,Calm,-,0.00,,Overcast,0,2013-08-13 22:53:00
6:53 PM,75.9,72.0,87,29.96,10.0,Calm,Calm,-,N/A,,Overcast,0,2013-08-13 23:53:00
7:53 PM,75.9,73.0,91,29.97,9.0,North,4.6,-,0.01,Rain,Light Rain,350,2013-08-14 00:53:00
8:53 PM,75.0,72.0,90,29.99,10.0,NNE,3.5,-,0.01,,Overcast,30,2013-08-14 01:53:00
9:53 PM,73.0,70.0,90,30.01,10.0,NE,5.8,-,N/A,,Scattered Clouds,40,2013-08-14 02:53:00
10:53 PM,72.0,68.0,87,30.02,10.0,NE,4.6,-,N/A,,Scattered Clouds,50,2013-08-14 03:53:00
11:53 PM,71.1,66.9,87,30.01,10.0,NE,3.5,-,N/A,,Clear,40,2013-08-14 04:53:00